Regional Weather Roundup
Issued by NWS

Home | Current Version | Previous Version | Text Only | Print | Product List | Glossary Off
Versions: 1 2 3 4 5 6 7 8 9 10 11 12 13 14 15 16 17 18 19 20 21 22 23 24 25 26 27 28 29 30 31 32 33 34 35 36 37 38 39 40 41 42 43 44 45 46 47 48 49 50

000
ASUS43 KLMK 201210
RWRKY
KENTUCKY REGIONAL WEATHER ROUNDUP
NATIONAL WEATHER SERVICE LOUISVILLE KY
700 AM EST MON FEB 20 2017

NOTE "FAIR" INDICATES FEW OR NO CLOUDS BELOW 12,000 FEET
WITH NO SIGNIFICANT WEATHER AND/OR OBSTRUCTIONS TO VISIBILITY.

KYZ001>023-026-027-061>063-070>075-201300-
WESTERN AND SOUTH CENTRAL KENTUCKY

CITY           SKY/WX    TMP DP  RH WIND       PRES   REMARKS
PADUCAH        CLOUDY    49  47  93 E6        30.09S
HENDERSON      PTCLDY    43  39  87 E6        30.14S
OWENSBORO      PTCLDY    42  42 100 CALM      30.16F FOG
HOPKINSVILLE   CLOUDY    49  49 100 E6        30.14S
BOWLING GREEN  FOG       40  39  97 E3        30.18F VSB 1/4
GLASGOW        FOG      N/A N/A N/A CALM      30.19F VSB 1
$$

KYZ024-025-028>034-038-045-046-053-201300-
NORTH CENTRAL KENTUCKY

CITY           SKY/WX    TMP DP  RH WIND       PRES   REMARKS
LOUISVILLE/SDF FOG       41  39  93 CALM      30.21R VSB 1/8
LOUISVILLE/LOU FOG       38  36  92 CALM      30.21R VSB 1/4
FORT KNOX      FOG       37  37 100 E3        30.18R VSB 1/4
$$

KYZ035>037-039>044-047>052-055>060-089>105-201300-
NORTHEAST KENTUCKY

CITY           SKY/WX    TMP DP  RH WIND       PRES   REMARKS
LEXINGTON      CLEAR     39  37  92 CALM      30.22R FOG
COVINGTON      FOG       38  38 100 E3        30.22R VSB 1/2
FRANKFORT      FOG       37  35  92 E3        30.20R VSB<1/4
$$

KYZ054-064>069-076>088-106>120-201300-
SOUTHEAST KENTUCKY

CITY           SKY/WX    TMP DP  RH WIND       PRES   REMARKS
JACKSON        CLEAR     44  41  89 CALM      30.23R
LONDON         CLOUDY    35  33  92 CALM      30.21S
SOMERSET       CLEAR     34  34 100 CALM      30.24R
MIDDLESBORO    FOG       38  38 100 CALM      30.25R VSB<1/4
MONTICELLO     FOG       32  30  93 NW9       30.24R VSB 3/4 WCI  24
$$





USA.gov is the U.S. government's official web portal to all federal, state and local government web resources and services.